Port Clinton Carl R Keller Fi, OH

8:35 PM EDT on August 19, 2017 (GMT -0400)
Keller

Weather History for KPCW - April, 2013

Change the Weather History Date:

Wednesday, April 24, 2013

  Actual Average (KTTF) Record (KTTF)
Temperature  
Mean Temperature 50 °F -  
Max Temperature 60 °F 61 °F 89 °F (1985)
Min Temperature 38 °F 40 °F 22 °F (1986)
Degree Days  
Heating Degree Days 16    
Moisture  
Dew Point 42 °F    
Average Humidity 86    
Maximum Humidity 100    
Minimum Humidity 70    
Precipitation  
Precipitation 0.00 in - - ()
Sea Level Pressure  
Sea Level Pressure 29.87 in    
Wind  
Wind Speed 11 mph ()    
Max Wind Speed 18 mph    
Max Gust Speed 28 mph    
Visibility 7.5 miles    
Events Rain    
Averages and records for this station are not official NWS values.
T = Trace of Precipitation, MM = Missing Value Source: Averaged Metar Reports

Daily Weather History Graph

Daily Weather History Graph

Search for Another Location

Airport or City:

Trip Planner

Search our weather history database for the weather conditions in past years. The results will help you decide how hot, cold, wet, or windy it might be!

Date:

Astronomy

Apr. 24, 2013 Rise Set
Actual Time 6:37 AM EDT 8:22 PM EDT
Civil Twilight 6:08 AM EDT 8:51 PM EDT
Nautical Twilight 5:32 AM EDT 9:27 PM EDT
Astronomical Twilight 4:54 AM EDT 10:06 PM EDT
Moon 7:23 PM EDT (4/24) 5:41 AM EDT (4/24)
Length of Visible Light 14h 43m
Length of Day
13h 44m
Waxing Gibbous, 98% of the Moon is Illuminated
Apr 24
Waxing Gibbous
Apr 25
Full
May 2
Last Quarter
May 9
New
May 18
First Quarter

Hourly Weather History & Observations

Time (EDT) Temp. Windchill Dew Point Humidity Pressure Visibility Wind Dir Wind Speed Gust Speed Precip Events Conditions
12:13 AM 55.4 °F - 53.6 °F 94% 29.83 in 7.0 mi SE 3.5 mph - N/A Rain Light Rain
12:34 AM 57.2 °F - 53.6 °F 88% 29.82 in 10.0 mi South 6.9 mph - N/A Rain Light Rain
12:54 AM 59.0 °F - 53.6 °F 82% 29.82 in 9.0 mi South 9.2 mph - N/A Rain Light Rain
1:13 AM 60.8 °F - 53.6 °F 77% 29.81 in 10.0 mi SSW 9.2 mph - N/A Rain Light Rain
1:34 AM 60.8 °F - 53.6 °F 77% 29.80 in 7.0 mi SSW 13.8 mph - N/A Rain Light Rain
1:53 AM 60.8 °F - 53.6 °F 77% 29.79 in 6.0 mi SSW 12.7 mph - N/A Rain Light Rain
2:14 AM 57.2 °F - 53.6 °F 88% 29.78 in 8.0 mi South 12.7 mph - N/A Rain Light Rain
2:33 AM 59.0 °F - 53.6 °F 82% 29.76 in 9.0 mi SSW 15.0 mph - N/A Rain Light Rain
2:53 AM 59.0 °F - 53.6 °F 82% 29.75 in 9.0 mi SSW 17.3 mph - N/A Rain Light Rain
3:14 AM 59.0 °F - 53.6 °F 82% 29.74 in 10.0 mi SSW 13.8 mph - N/A Rain Light Rain
3:33 AM 59.0 °F - 55.4 °F 88% 29.74 in 10.0 mi SSW 13.8 mph - N/A   Overcast
3:53 AM 59.0 °F - 55.4 °F 88% 29.73 in 10.0 mi SSW 12.7 mph - N/A   Overcast
4:14 AM 59.0 °F - 55.4 °F 88% 29.73 in 10.0 mi SSW 11.5 mph - N/A   Overcast
4:33 AM 59.0 °F - 55.4 °F 88% 29.73 in 10.0 mi SW 10.4 mph - N/A   Mostly Cloudy
4:54 AM 59.0 °F - 53.6 °F 82% 29.72 in 10.0 mi SW 8.1 mph - N/A   Overcast
5:14 AM 59.0 °F - 53.6 °F 82% 29.72 in 10.0 mi SSW 9.2 mph - N/A Rain Light Rain
5:33 AM 59.0 °F - 53.6 °F 82% 29.72 in 10.0 mi SSW 9.2 mph - N/A   Overcast
5:40 AM 59.0 °F - 53.6 °F 82% 29.72 in 10.0 mi SSW 10.4 mph - N/A   Overcast
6:14 AM 59.0 °F - 53.6 °F 82% 29.73 in 10.0 mi SW 11.5 mph - N/A Rain Light Rain
6:33 AM 59.0 °F - 55.4 °F 88% 29.73 in 7.0 mi SW 10.4 mph - N/A Rain Light Rain
7:14 AM 48.2 °F - 48.2 °F 100% 29.77 in 5.0 mi NNW 11.5 mph - N/A Rain Light Rain
7:27 AM 48.2 °F - 46.4 °F 93% 29.77 in 6.0 mi NNW 12.7 mph - N/A Rain Light Rain
7:54 AM 46.4 °F 40.7 °F 44.6 °F 93% 29.78 in 5.0 mi North 12.7 mph - N/A Rain Light Rain
8:06 AM 44.6 °F 38.4 °F 42.8 °F 93% 29.77 in 5.0 mi North 12.7 mph - N/A Rain Rain
8:34 AM 42.8 °F 36.6 °F 41.0 °F 93% 29.79 in 4.0 mi North 11.5 mph - N/A Rain Rain
8:53 AM 42.8 °F 36.6 °F 39.2 °F 87% 29.79 in 4.0 mi North 11.5 mph - N/A Rain Rain
9:14 AM 42.8 °F 35.4 °F 39.2 °F 87% 29.81 in 6.0 mi North 15.0 mph - N/A Rain Light Rain
9:29 AM 41.0 °F 35.2 °F 37.4 °F 87% 29.78 in 5.0 mi NNE 9.2 mph - N/A Rain Light Rain
9:54 AM 39.2 °F 32.0 °F 37.4 °F 93% 29.78 in 5.0 mi NNE 11.5 mph - N/A Rain Light Rain
10:14 AM 39.2 °F 32.5 °F 37.4 °F 93% 29.80 in 5.0 mi North 10.4 mph - N/A Rain Light Rain
10:33 AM 39.2 °F 34.2 °F 37.4 °F 93% 29.79 in 5.0 mi NNE 6.9 mph - N/A Rain Rain
10:43 AM 39.2 °F 34.2 °F 37.4 °F 93% 29.81 in 5.0 mi NNE 6.9 mph - N/A Rain Light Rain
11:14 AM 41.0 °F 34.3 °F 39.2 °F 93% 29.83 in 3.0 mi North 11.5 mph - N/A Rain Rain
11:34 AM 39.2 °F 32.5 °F 37.4 °F 93% 29.80 in 3.0 mi NNE 10.4 mph - N/A Rain Rain
11:54 AM 39.2 °F 33.0 °F 35.6 °F 87% 29.81 in 4.0 mi NNE 9.2 mph - N/A Rain Rain
12:10 PM 39.2 °F 32.5 °F 35.6 °F 87% 29.80 in 7.0 mi North 10.4 mph - N/A Rain Light Rain
12:31 PM 41.0 °F 33.9 °F 39.2 °F 93% 29.79 in 5.0 mi North 12.7 mph - N/A Rain Light Rain
12:49 PM 42.8 °F 36.6 °F 39.2 °F 87% 29.82 in 7.0 mi NNW 11.5 mph - N/A Rain Light Rain
1:14 PM 42.8 °F 36.6 °F 39.2 °F 87% 29.82 in 2.5 mi NNW 11.5 mph - N/A Rain Light Rain
1:34 PM 42.8 °F 36.6 °F 39.2 °F 87% 29.83 in 1.8 mi NNW 11.5 mph - N/A Rain Light Rain
1:54 PM 41.0 °F 32.5 °F 39.2 °F 93% 29.85 in 1.5 mi NW 17.3 mph - N/A   Overcast
2:14 PM 41.0 °F 32.8 °F 39.2 °F 93% 29.86 in 2.0 mi NW 16.1 mph - N/A Rain Light Rain
2:34 PM 41.0 °F 32.5 °F 39.2 °F 93% 29.86 in 2.0 mi NW 17.3 mph - N/A Rain Light Rain
2:54 PM 39.2 °F 30.2 °F 37.4 °F 93% 29.88 in 2.5 mi NW 17.3 mph 27.6 mph N/A Rain Light Rain
3:14 PM 39.2 °F 30.2 °F 37.4 °F 93% 29.88 in 5.0 mi NW 17.3 mph - N/A Rain Light Rain
3:30 PM 39.2 °F 29.8 °F 37.4 °F 93% 29.90 in 6.0 mi NW 18.4 mph - N/A Rain Light Rain
3:54 PM 39.2 °F 30.8 °F 37.4 °F 93% 29.91 in 9.0 mi NW 15.0 mph - N/A Rain Light Rain
4:13 PM 39.2 °F 29.8 °F 37.4 °F 93% 29.92 in 7.0 mi NW 18.4 mph - N/A Rain Light Rain
4:34 PM 39.2 °F 31.2 °F 37.4 °F 93% 29.93 in 8.0 mi WNW 13.8 mph - N/A Rain Light Rain
4:53 PM 39.2 °F 30.5 °F 37.4 °F 93% 29.94 in 10.0 mi WNW 16.1 mph - N/A Rain Light Rain
5:14 PM 41.0 °F 32.5 °F 37.4 °F 87% 29.96 in 10.0 mi NW 17.3 mph - N/A Rain Light Rain
5:34 PM 41.0 °F 32.5 °F 37.4 °F 87% 29.97 in 10.0 mi WNW 17.3 mph - N/A Rain Light Rain
5:53 PM 42.8 °F 34.5 °F 37.4 °F 81% 29.99 in 10.0 mi WNW 18.4 mph - N/A Rain Light Rain
6:13 PM 42.8 °F 34.5 °F 37.4 °F 81% 30.00 in 10.0 mi WNW 18.4 mph - N/A Rain Light Rain
6:31 PM 42.8 °F 35.8 °F 37.4 °F 81% 30.01 in 10.0 mi WNW 13.8 mph - N/A Rain Light Rain
6:54 PM 42.8 °F 35.8 °F 37.4 °F 81% 30.02 in 10.0 mi WNW 13.8 mph - N/A   Overcast
7:13 PM 42.8 °F 36.2 °F 37.4 °F 81% 30.03 in 10.0 mi West 12.7 mph - N/A   Mostly Cloudy
7:34 PM 42.8 °F 36.6 °F 37.4 °F 81% 30.04 in 10.0 mi West 11.5 mph - N/A   Partly Cloudy
7:54 PM 42.8 °F 36.6 °F 37.4 °F 81% 30.05 in 10.0 mi West 11.5 mph - N/A   Mostly Cloudy
8:13 PM 42.8 °F 37.5 °F 37.4 °F 81% 30.06 in 10.0 mi WSW 9.2 mph - N/A   Overcast
8:34 PM 42.8 °F 37.5 °F 37.4 °F 81% 30.07 in 10.0 mi WSW 9.2 mph - N/A   Mostly Cloudy
8:53 PM 41.9 °F 36.3 °F 34.9 °F 76% 30.08 in 10.0 mi West 9.2 mph - N/A   Partly Cloudy
9:13 PM 42.8 °F 37.5 °F 33.8 °F 70% 30.10 in 10.0 mi West 9.2 mph - N/A   Scattered Clouds
9:34 PM 42.8 °F 37.5 °F 33.8 °F 70% 30.11 in 10.0 mi West 9.2 mph - N/A   Mostly Cloudy
9:53 PM 41.0 °F 35.2 °F 34.0 °F 76% 30.12 in 10.0 mi West 9.2 mph - N/A   Mostly Cloudy
10:53 PM 39.9 °F 34.5 °F 32.0 °F 73% 30.14 in 10.0 mi West 8.1 mph - N/A   Clear
11:14 PM 39.2 °F 32.5 °F 32.0 °F 75% 30.14 in 10.0 mi West 10.4 mph - N/A   Clear
11:34 PM 39.2 °F 33.0 °F 32.0 °F 75% 30.15 in 10.0 mi West 9.2 mph - N/A   Clear
11:53 PM 38.8 °F 32.1 °F 31.1 °F 74% 30.15 in 10.0 mi West 10.4 mph - N/A   Clear